Back to catalog

COSMOS 2440

AliveNavigationGEO
NORAD 33108·PAYLOAD·🇷🇺 Russia

Launched Jun 27, 2008 from Baikonur Cosmodrome

Loading…

TLE

FreshSource: Space-Track

Epoch: Sep 14, 2026, 10:44 UTC

1 33108U 08033A   26257.44781127 -.00000121  00000-0  00000-0 0  9990
2 33108  10.7498  40.3460 0005438 191.1869   0.0704  1.00261018 66684

Track COSMOS 2440 in real time with AllMySat

Download on the App Store